Location: Brachbach
(49.1847°N, 9.7240°E)
Time: 08:38:46
(UTC+00:00)

FENGYUN 3A - Pass Details

Date: 17 August 2024
Orbit: 821 x 834 km, 98.6° (Epoch: 16 September)

Event Time Altitude Azimuth Distance (km) Brightness Sun altitude
Rises 02:39:17 0° 9° (N) 3,395 7.7 -14.3°
Reaches altitude 10° 02:41:46 10° 2° (N) 2,455 6.7 -14.0°
Maximum altitude 02:46:48 40° 295° (WNW) 1,214 4.3 -13.4°
Enters shadow 02:50:20 18° 235° (SW) 1,926 4.9 -12.9°
